Orbital Elements at Epoch 2459200.5 (2020-Dec-17.0) TDB
Reference: JPL 20 (heliocentric ecliptic J2000)
Element | Value | Uncertainty (1-sigma) | Units |
e | .2114895478767726 | 4.6802e-08 | |
a | 3.157642262747777 | 2.3858e-08 | au |
q | 2.48983392824266 | 1.5834e-07 | au |
i | .643181302995161 | 4.1928e-06 | deg |
node | 26.03024493420571 | 0.00040456 | deg |
peri | 334.5424897839923 | 0.00040468 | deg |
M | 314.18068893162 | 1.3205e-05 | deg |
tp | 2459461.348816270460 (2021-Sep-03.84881627) | 7.7261e-05 | TDB |
period | 2049.475901486659 5.61 | 2.3228e-05 6.359e-08 | d yr |
n | .1756546635844127 | 1.9908e-09 | deg/d |
Q | 3.825450597252894 | 2.8904e-08 | au |
|
| | Orbit Determination Parameters
Additional Information
|